Home > Weather > Yellowknife > Past weeks

Flag for Canada Weather for the Past 2 Weeks in Yellowknife, Northwest Territories, Canada

Now
-18 °F

Passing clouds.


Feels Like: -40 °F
Forecast: -22 / 2 °F
Wind: 12 mph from Southeast

Location: Yellowknife

Current Time: Feb 11, 2016 at 8:58:12 PM

Latest Report: Feb 11, 2016 at 8:00 PM


Visibility: 15 mi

Pressure: 30.79 "Hg

Humidity: 75%

Dew point: -24 °F

Location of YellowknifeLocation

Historic Weather in Yellowknife — Graph

°F

Yellowknife Temperature Yesterday

Maximum temperature yesterday: -15 °F (at 3:00 PM)
Minimum temperature yesterday: -27 °F (at 7:00 AM)
Average temperature yesterday: -22 °F

High & Low Weather Summary for the Past Weeks

 TemperatureHumidityPressure
High16 °F (Jan 28, 8:00 PM)92% (Jan 28, 3:00 AM)30.81 "Hg (Jan 28, 3:00 AM)
Low-35 °F (Feb 4, 9:00 AM)66% (Feb 4, 5:00 AM)29.14 "Hg (Jan 28, 10:00 PM)
Average-9 °F79%30.06 "Hg
* Reported Jan 27 7:00 PM — Feb 11 7:00 PM, Yellowknife, Weather by CustomWeather, © 2016

Note: Actual official high and low records may vary slightly from our data, if they occured in-between our weather recording intervals... More about our weather records

Advertising

Yellowknife Weather History for the Previous 24 Hours

 ConditionsComfort  
Time TempWeatherWind HumidityBarometerVisibility
7:00 PM
Thu, Feb 11
-17 °FClear.12 mph76%30.79 "Hg15 mi
6:00 PM-15 °FPassing clouds.7 mph69%30.80 "Hg15 mi
5:00 PM-13 °FPartly sunny.7 mph69%30.81 "Hg15 mi
4:00 PM-11 °FPartly sunny.9 mph70%30.80 "Hg15 mi
3:00 PM-13 °FPartly sunny.7 mph76%30.80 "Hg15 mi
2:00 PM-13 °FPartly sunny.6 mph76%30.79 "Hg15 mi
1:00 PM-13 °FScattered clouds.9 mph76%30.79 "Hg15 mi
12:00 PM-17 °FScattered clouds.7 mph76%30.78 "Hg15 mi
11:00 AM-20 °FScattered clouds.9 mph75%30.77 "Hg15 mi
10:00 AM-20 °FScattered clouds.7 mph68%30.74 "Hg15 mi
9:00 AM-22 °FScattered clouds.8 mph68%30.72 "Hg15 mi
8:00 AM-24 °FPassing clouds.7 mph75%30.70 "Hg15 mi
7:00 AM-24 °FPassing clouds.6 mph75%30.68 "Hg15 mi
6:00 AM-26 °FPassing clouds.5 mph75%30.66 "Hg15 mi
5:00 AM-26 °FClear.7 mph75%30.65 "Hg15 mi
4:00 AM-24 °FClear.10 mph68%30.64 "Hg15 mi
3:00 AM-24 °FClear.6 mph75%30.63 "Hg15 mi
2:00 AM-24 °FClear.5 mph75%30.62 "Hg15 mi
1:00 AM-22 °FClear.6 mph68%30.62 "Hg15 mi
12:00 AM-24 °FClear.6 mph75%30.63 "Hg15 mi
11:00 PM
Wed, Feb 10
-26 °FClear.5 mph75%30.64 "Hg15 mi
10:00 PM-26 °FClear.6 mph75%30.64 "Hg15 mi
9:00 PM-24 °FClear.3 mph75%30.65 "Hg15 mi
8:00 PM-22 °FClear.6 mph83%30.64 "Hg15 mi
Weather by CustomWeather, © 2016

See weather overviewHow to use our weather pages